K2MST Weather Reports


time (UTC)temp
F
wind
direction
speed
knots
gust
knots
rain 1hr
in
rain 24hr
in
rain mn
in
humidity
%
barometer
mb
20260509015058 46 135 1.7 4.3 0.00 0.07 0.07 67 1010.0
20260509014017 46 180 2.6 4.3 0.00 0.07 0.07 66 1009.9
20260509013017 47 158 2.6 4.3 0.00 0.07 0.07 64 1009.7
20260509012017 48 158 1.7 3.5 0.00 0.07 0.07 62 1009.6
20260509011017 49 180 0.9 1.7 0.00 0.07 0.07 60 1009.4
20260509010017 49 158 0.9 1.7 0.00 0.07 0.07 57 1009.3
20260509005017 50 0.0 0.9 0.00 0.07 0.07 55 1009.1
20260509004017 51 180 0.9 2.6 0.00 0.07 0.07 52 1009.0
20260509003138 52 0.0 0.0 0.00 0.07 0.07 49 1009.0
20260509002017 53 0.0 0.9 0.00 0.07 0.07 46 1008.9
20260509001017 54 0.0 0.9 0.00 0.07 0.07 42 1008.8
20260509000017 55 0.0 0.0 0.00 0.07 0.07 41 1008.8
20260508235017 56 0.0 0.0 0.00 0.07 0.07 39 1008.7
20260508234017 56 23 1.7 2.6 0.00 0.07 0.07 39 1008.6
20260508233017 57 0.0 1.7 0.00 0.07 0.07 37 1008.5
20260508232018 57 23 0.9 2.6 0.00 0.07 0.07 38 1008.5
20260508231039 56 45 1.7 3.5 0.00 0.07 0.07 39 1008.5
20260508230019 56 23 2.6 3.5 0.00 0.07 0.07 39 1008.5
20260508225019 57 338 1.7 3.5 0.00 0.07 0.07 39 1008.5
20260508224019 57 338 3.5 8.7 0.00 0.07 0.07 39 1008.6
20260508223019 59 315 1.7 3.5 0.00 0.07 0.07 36 1008.6
20260508222019 60 225 0.9 2.6 0.00 0.07 0.07 38 1008.6
20260508221018 59 315 2.6 5.2 0.00 0.07 0.07 38 1008.8
20260508220018 58 225 0.9 5.2 0.00 0.07 0.07 38 1008.9
20260508215018 58 225 5.2 8.7 0.00 0.07 0.07 40 1009.0
20260508214018 57 248 3.5 11.3 0.00 0.07 0.07 41 1009.0
20260508213018 58 225 5.2 12.2 0.00 0.07 0.07 37 1009.1
20260508212018 58 270 5.2 8.7 0.00 0.07 0.07 39 1009.0
20260508211038 57 315 4.3 10.4 0.00 0.07 0.07 39 1008.9
20260508210018 57 270 5.2 9.6 0.00 0.07 0.07 40 1009.1
20260508205018 56 270 4.3 8.7 0.00 0.07 0.07 42 1009.2
20260508204018 58 270 4.3 8.7 0.00 0.07 0.07 40 1009.2
20260508203039 56 315 1.7 3.5 0.00 0.07 0.07 46 1009.2
20260508202018 56 248 2.6 7.8 0.00 0.07 0.07 47 1009.3
20260508201018 56 248 3.5 6.1 0.00 0.07 0.07 48 1009.5
20260508200018 56 270 0.9 4.3 0.00 0.07 0.07 44 1009.6
20260508195141 56 248 3.5 12.2 0.00 0.07 0.07 47 1009.7
20260508194038 55 248 2.6 6.1 0.00 0.07 0.07 50 1009.8
20260508193018 57 270 3.5 8.7 0.00 0.07 0.07 46 1009.8
20260508192018 55 293 2.6 5.2 0.00 0.07 0.07 51 1009.7
20260508191018 55 225 4.3 10.4 0.00 0.07 0.07 53 1009.9
20260508190038 54 248 2.6 5.2 0.00 0.07 0.07 58 1009.9
20260508185018 53 203 4.3 7.8 0.00 0.07 0.07 58 1010.1
20260508184018 52 225 5.2 9.6 0.00 0.07 0.07 60 1010.2
20260508183018 52 23 1.7 5.2 0.00 0.07 0.07 61 1010.3
20260508182018 50 293 1.7 3.5 0.00 0.07 0.07 64 1010.3
20260508181018 50 293 2.6 6.1 0.00 0.07 0.07 62 1010.5
20260508180038 50 293 4.3 7.8 0.00 0.07 0.07 58 1010.3
20260508175018 50 225 3.5 7.8 0.00 0.07 0.07 60 1010.4
20260508174038 50 225 6.1 10.4 0.00 0.07 0.07 60 1010.4
20260508173018 52 225 1.7 5.2 0.00 0.07 0.07 60 1010.4
20260508172018 50 225 4.3 12.2 0.00 0.07 0.07 63 1010.4
20260508171037 50 225 3.5 7.8 0.00 0.07 0.07 63 1010.7
20260508170017 50 248 3.5 9.6 0.00 0.07 0.07 64 1010.8
20260508165017 49 225 2.6 5.2 0.00 0.07 0.07 63 1010.8
20260508164017 49 248 2.6 7.0 0.00 0.07 0.07 66 1010.6
20260508163017 49 248 1.7 4.3 0.00 0.07 0.07 66 1010.6
20260508162017 49 225 2.6 6.1 0.00 0.07 0.07 66 1010.8
20260508161017 50 203 5.2 13.9 0.00 0.07 0.07 66 1010.8
20260508160017 48 225 4.3 8.7 0.00 0.07 0.07 69 1010.8
20260508155037 48 203 4.3 8.7 0.00 0.07 0.07 72 1010.9
20260508154017 47 225 3.5 7.8 0.01 0.07 0.07 75 1010.8
20260508153038 46 225 2.6 5.2 0.02 0.07 0.07 78 1010.9
20260508152017 44 248 5.2 10.4 0.02 0.07 0.07 78 1010.9
20260508151057 44 225 5.2 10.4 0.03 0.07 0.07 78 1011.0
20260508150017 43 203 3.5 6.1 0.03 0.07 0.07 81 1010.8
20260508145037 43 270 4.3 10.4 0.03 0.07 0.07 80 1011.0
20260508144037 44 248 2.6 5.2 0.02 0.06 0.06 82 1011.1
20260508143017 44 248 2.6 8.7 0.02 0.05 0.05 79 1010.9
20260508142017 45 225 4.3 11.3 0.02 0.05 0.05 78 1010.8
20260508141017 45 225 1.7 7.8 0.01 0.04 0.04 80 1010.7
20260508135019 46 248 3.5 8.7 0.01 0.04 0.04 78 1010.5
20260508134019 46 293 3.5 7.8 0.01 0.04 0.04 78 1010.5
20260508133020 46 248 2.6 5.2 0.00 0.03 0.03 79 1010.4
20260508132019 46 293 2.6 4.3 0.00 0.03 0.03 77 1010.4
20260508131039 46 315 3.5 7.0 0.00 0.03 0.03 75 1010.4
20260508130019 46 293 1.7 4.3 0.00 0.03 0.03 76 1010.2
20260508125019 47 315 3.5 6.1 0.00 0.03 0.03 75 1010.1
20260508124018 47 315 1.7 2.6 0.00 0.03 0.03 76 1009.8
20260508123038 46 248 0.9 3.5 0.00 0.03 0.03 78 1009.5
20260508122019 46 248 0.9 2.6 0.00 0.03 0.03 78 1009.5
20260508121018 46 203 1.7 3.5 0.00 0.03 0.03 80 1009.8
20260508120038 46 203 1.7 2.6 0.00 0.03 0.03 80 1009.7
20260508115039 44 225 0.9 2.6 0.00 0.03 0.03 83 1009.7
20260508114018 44 158 1.7 5.2 0.00 0.03 0.03 84 1009.6
20260508113018 42 180 1.7 4.3 0.00 0.03 0.03 86 1009.8
20260508112018 42 180 2.6 5.2 0.00 0.03 0.03 86 1009.9
20260508111018 42 180 2.6 5.2 0.00 0.03 0.03 87 1010.0
20260508110019 41 158 3.5 5.2 0.00 0.03 0.03 88 1010.0
20260508105018 40 180 1.7 3.5 0.00 0.03 0.03 88 1010.1
20260508104018 40 180 1.7 4.3 0.00 0.03 0.03 88 1010.1
20260508103018 39 180 2.6 5.2 0.00 0.03 0.03 89 1009.9
20260508102018 39 158 0.9 3.5 0.00 0.03 0.03 89 1009.9
20260508101018 39 158 1.7 2.6 0.00 0.03 0.03 88 1010.0
20260508100018 39 158 1.7 2.6 0.00 0.03 0.03 88 1010.0
20260508095018 39 158 1.7 3.5 0.00 0.03 0.03 88 1009.8
20260508094018 39 158 1.7 3.5 0.00 0.03 0.03 88 1009.8
20260508093018 39 158 2.6 4.3 0.00 0.03 0.03 88 1009.7
20260508092039 39 180 2.6 4.3 0.00 0.03 0.03 88 1009.7
20260508091018 39 180 2.6 5.2 0.00 0.03 0.03 87 1009.7
20260508090038 39 180 2.6 6.1 0.00 0.03 0.03 87 1009.7
20260508085018 40 180 3.5 6.1 0.00 0.03 0.03 87 1009.6
20260508084138 40 180 2.6 5.2 0.00 0.03 0.03 87 1009.6
20260508083019 40 180 1.7 3.5 0.00 0.03 0.03 86 1009.6
20260508082018 40 158 2.6 6.1 0.00 0.03 0.03 85 1009.5
20260508081018 41 180 2.6 6.1 0.00 0.03 0.03 85 1009.7
20260508080018 41 180 1.7 4.3 0.00 0.03 0.03 85 1009.7
20260508075018 41 180 0.9 3.5 0.01 0.03 0.03 85 1009.8
20260508074017 41 203 0.9 2.6 0.01 0.03 0.03 85 1009.9
20260508073017 41 0.0 1.7 0.01 0.03 0.03 84 1009.9
20260508072017 41 203 0.9 3.5 0.03 0.03 0.03 83 1009.9
20260508071057 41 225 0.9 3.5 0.03 0.03 0.03 82 1009.9
20260508070017 41 0.0 1.7 0.03 0.03 0.03 80 1009.9
20260508065017 42 248 1.7 3.5 0.02 0.02 0.02 80 1010.0
20260508064018 42 293 4.3 10.4 0.02 0.02 0.02 79 1010.0
20260508063037 43 315 4.3 10.4 0.02 0.02 0.02 74 1009.9
20260508062017 45 293 4.3 10.4 0.00 0.00 0.00 71 1009.8
20260508061017 46 315 2.6 7.0 0.00 0.00 0.00 68 1009.6
20260508060017 46 293 4.3 9.6 0.00 0.00 0.00 66 1009.5
20260508055017 46 293 4.3 7.8 0.00 0.00 0.00 63 1009.3
20260508054017 45 293 1.7 3.5 0.00 0.00 0.00 62 1009.3
20260508053038 44 0.0 1.7 0.00 0.00 0.00 67 1009.3
20260508052017 44 0.0 1.7 0.00 0.00 0.00 68 1009.2
20260508051017 43 158 0.9 1.7 0.00 0.00 0.00 68 1009.2
20260508050017 43 0.0 0.9 0.00 0.00 0.00 69 1009.3
20260508045017 43 0.0 0.9 0.00 0.00 0.00 69 1009.3
20260508044037 43 158 0.9 2.6 0.00 0.00 0.00 68 1009.2
20260508043017 43 0.0 1.7 0.00 0.00 0.00 68 1009.3
20260508042019 43 158 1.7 2.6 0.00 0.00 0.00 68 1009.2
20260508041039 43 180 1.7 2.6 0.00 0.00 0.00 68 1009.2
20260508040017 43 158 0.9 2.6 0.00 0.00 0.00 67 1009.2
20260508035017 43 158 0.9 1.7 0.00 0.00 0.00 68 1009.1
20260508034017 43 158 2.6 3.5 0.00 0.00 0.00 68 1009.2
20260508033017 43 158 1.7 3.5 0.00 0.00 0.00 67 1009.1
20260508032017 43 158 0.9 2.6 0.00 0.00 0.00 64 1008.9
20260508031019 44 225 0.9 2.6 0.00 0.00 0.00 61 1008.9
20260508030018 44 225 0.9 2.6 0.00 0.00 0.00 62 1008.9
20260508025019 45 225 0.9 2.6 0.00 0.00 0.00 62 1008.7
20260508024018 46 248 0.9 1.7 0.00 0.00 0.00 59 1008.5
20260508023019 46 225 0.9 0.9 0.00 0.00 0.00 58 1008.5
20260508022018 46 0.0 0.9 0.00 0.00 0.00 57 1008.5
20260508021039 47 0.0 1.7 0.00 0.00 0.00 54 1008.8
20260508020039 48 0.0 0.9 0.00 0.00 0.00 53 1008.8